Time,TemperatureF,DewpointF,PressureIn,WindDirection,WindDirectionDegrees,WindSpeedMPH,WindSpeedGustMPH,Humidity,HourlyPrecipIn,Conditions,Clouds,dailyrainin,SoftwareType,DateUTC
2013-02-05 00:07:00,16.3,14.0,30.00,SE,124,0.0,0.0,91,0.00,,,0.00,weatherlink.com 1.10,2013-02-05 06:07:00,
2013-02-05 00:22:00,15.8,14.0,29.98,SE,124,0.0,0.0,91,0.00,,,0.00,weatherlink.com 1.10,2013-02-05 06:22:00,
2013-02-05 00:37:00,16.0,14.0,29.99,SE,124,0.0,0.0,91,0.00,,,0.00,weatherlink.com 1.10,2013-02-05 06:37:00,
2013-02-05 00:52:00,15.6,14.0,29.98,West,266,0.0,0.0,91,0.00,,,0.00,weatherlink.com 1.10,2013-02-05 06:52:00,
2013-02-05 01:07:00,15.5,13.0,29.98,West,266,0.0,0.0,91,0.00,,,0.00,weatherlink.com 1.10,2013-02-05 07:07:00,
2013-02-05 01:22:00,15.8,14.0,29.98,West,266,0.0,0.0,92,0.00,,,0.00,weatherlink.com 1.10,2013-02-05 07:22:00,
2013-02-05 01:37:00,16.6,15.0,30.00,West,266,0.0,0.0,92,0.00,,,0.00,weatherlink.com 1.10,2013-02-05 07:37:00,
2013-02-05 01:52:00,17.1,15.0,30.00,West,266,0.0,0.0,92,0.00,,,0.00,weatherlink.com 1.10,2013-02-05 07:52:00,
2013-02-05 02:07:00,17.5,16.0,29.99,West,266,0.0,0.0,92,0.00,,,0.00,weatherlink.com 1.10,2013-02-05 08:07:00,
2013-02-05 02:22:00,18.0,16.0,29.98,SE,140,1.0,2.0,91,0.00,,,0.00,weatherlink.com 1.10,2013-02-05 08:22:00,
2013-02-05 02:37:00,18.4,16.0,29.97,SE,134,1.0,3.0,91,0.00,,,0.00,weatherlink.com 1.10,2013-02-05 08:37:00,
2013-02-05 02:52:00,18.8,16.0,29.96,SE,127,0.0,3.0,90,0.00,,,0.00,weatherlink.com 1.10,2013-02-05 08:52:00,
2013-02-05 03:07:00,19.1,17.0,29.95,SE,144,1.0,4.0,90,0.00,,,0.00,weatherlink.com 1.10,2013-02-05 09:07:00,
2013-02-05 03:22:00,19.4,17.0,29.95,ESE,117,2.0,3.0,90,0.00,,,0.00,weatherlink.com 1.10,2013-02-05 09:22:00,
2013-02-05 03:37:00,19.7,17.0,29.94,SE,143,2.0,3.0,89,0.00,,,0.00,weatherlink.com 1.10,2013-02-05 09:37:00,
2013-02-05 03:52:00,20.0,17.0,29.95,SE,146,1.0,3.0,89,0.00,,,0.00,weatherlink.com 1.10,2013-02-05 09:52:00,
2013-02-05 04:07:00,20.2,18.0,29.95,SSE,155,2.0,3.0,89,0.00,,,0.00,weatherlink.com 1.10,2013-02-05 10:07:00,
2013-02-05 04:22:00,20.5,18.0,29.95,SSE,166,1.0,2.0,89,0.00,,,0.00,weatherlink.com 1.10,2013-02-05 10:22:00,
2013-02-05 04:37:00,20.6,18.0,29.94,ESE,115,1.0,2.0,89,0.00,,,0.00,weatherlink.com 1.10,2013-02-05 10:37:00,
2013-02-05 04:52:00,20.8,18.0,29.93,South,169,1.0,4.0,90,0.00,,,0.00,weatherlink.com 1.10,2013-02-05 10:52:00,
2013-02-05 05:08:00,20.9,18.0,29.93,SSE,163,1.0,3.0,89,0.00,,,0.00,weatherlink.com 1.10,2013-02-05 11:08:00,
2013-02-05 05:23:00,21.1,19.0,29.94,SE,145,1.0,1.0,90,0.00,,,0.00,weatherlink.com 1.10,2013-02-05 11:23:00,
2013-02-05 05:38:00,21.4,19.0,29.93,SE,132,4.0,4.0,90,0.00,,,0.00,weatherlink.com 1.10,2013-02-05 11:38:00,
2013-02-05 05:53:00,21.5,19.0,29.91,SE,145,3.0,7.0,90,0.00,,,0.00,weatherlink.com 1.10,2013-02-05 11:53:00,
2013-02-05 06:08:00,21.7,19.0,29.91,South,173,6.0,7.0,90,0.00,,,0.00,weatherlink.com 1.10,2013-02-05 12:08:00,
2013-02-05 06:23:00,21.9,20.0,29.92,SSE,153,1.0,4.0,90,0.00,,,0.00,weatherlink.com 1.10,2013-02-05 12:23:00,
2013-02-05 06:38:00,22.3,20.0,29.92,SSE,165,1.0,4.0,91,0.00,,,0.00,weatherlink.com 1.10,2013-02-05 12:38:00,
2013-02-05 06:53:00,22.7,20.0,29.93,SSW,208,2.0,5.0,90,0.00,,,0.00,weatherlink.com 1.10,2013-02-05 12:53:00,
2013-02-05 07:08:00,23.1,21.0,29.92,SW,229,5.0,5.0,91,0.00,,,0.00,weatherlink.com 1.10,2013-02-05 13:08:00,
2013-02-05 07:23:00,23.4,21.0,29.92,SSW,207,2.0,5.0,91,0.00,,,0.00,weatherlink.com 1.10,2013-02-05 13:23:00,
2013-02-05 07:38:00,23.5,21.0,29.92,SSW,195,4.0,5.0,91,0.00,,,0.00,weatherlink.com 1.10,2013-02-05 13:38:00,
2013-02-05 07:53:00,23.8,22.0,29.91,SSE,149,4.0,5.0,91,0.00,,,0.00,weatherlink.com 1.10,2013-02-05 13:53:00,
2013-02-05 08:08:00,24.1,22.0,29.91,SSE,157,2.0,6.0,91,0.00,,,0.00,weatherlink.com 1.10,2013-02-05 14:08:00,
2013-02-05 08:23:00,25.1,23.0,29.91,South,191,2.0,9.0,91,0.00,,,0.00,weatherlink.com 1.10,2013-02-05 14:23:00,
2013-02-05 08:38:00,26.4,24.0,29.91,ESE,113,1.0,7.0,89,0.00,,,0.00,weatherlink.com 1.10,2013-02-05 14:38:00,
2013-02-05 08:53:00,27.1,24.0,29.91,SW,224,3.0,9.0,88,0.00,,,0.00,weatherlink.com 1.10,2013-02-05 14:53:00,
2013-02-05 09:08:00,27.6,24.0,29.91,South,169,1.0,11.0,87,0.00,,,0.00,weatherlink.com 1.10,2013-02-05 15:08:00,
2013-02-05 09:23:00,28.4,25.0,29.90,SW,229,2.0,10.0,87,0.00,,,0.00,weatherlink.com 1.10,2013-02-05 15:23:00,
2013-02-05 09:38:00,29.1,25.0,29.90,SSW,193,4.0,12.0,86,0.00,,,0.00,weatherlink.com 1.10,2013-02-05 15:38:00,
2013-02-05 09:53:00,29.8,26.0,29.89,SSE,152,5.0,9.0,85,0.00,,,0.00,weatherlink.com 1.10,2013-02-05 15:53:00,
2013-02-05 10:08:00,30.6,26.0,29.89,West,269,6.0,11.0,84,0.00,,,0.00,weatherlink.com 1.10,2013-02-05 16:08:00,
2013-02-05 10:23:00,31.5,27.0,29.89,West,259,1.0,11.0,82,0.00,,,0.00,weatherlink.com 1.10,2013-02-05 16:23:00,
2013-02-05 10:38:00,32.6,28.0,29.89,West,262,8.0,11.0,82,0.00,,,0.00,weatherlink.com 1.10,2013-02-05 16:38:00,
2013-02-05 10:53:00,33.0,28.0,29.89,NNW,328,0.0,12.0,82,0.00,,,0.00,weatherlink.com 1.10,2013-02-05 16:53:00,
2013-02-05 11:09:00,33.7,28.0,29.89,SE,146,3.0,11.0,81,0.00,,,0.00,weatherlink.com 1.10,2013-02-05 17:09:00,
2013-02-05 11:24:00,34.7,29.0,29.88,WSW,248,4.0,13.0,79,0.00,,,0.00,weatherlink.com 1.10,2013-02-05 17:24:00,
2013-02-05 11:39:00,34.9,30.0,29.89,West,271,4.0,13.0,81,0.00,,,0.00,weatherlink.com 1.10,2013-02-05 17:39:00,
2013-02-05 11:54:00,35.0,29.0,29.88,West,271,9.0,14.0,80,0.00,,,0.00,weatherlink.com 1.10,2013-02-05 17:54:00,
2013-02-05 12:09:00,35.3,30.0,29.88,WSW,255,8.0,14.0,81,0.00,,,0.00,weatherlink.com 1.10,2013-02-05 18:09:00,
2013-02-05 12:24:00,35.6,29.0,29.88,WNW,295,7.0,15.0,78,0.00,,,0.00,weatherlink.com 1.10,2013-02-05 18:24:00,
2013-02-05 12:39:00,35.5,30.0,29.88,West,280,5.0,11.0,79,0.00,,,0.00,weatherlink.com 1.10,2013-02-05 18:39:00,
2013-02-05 12:54:00,36.8,31.0,29.89,West,281,4.0,14.0,78,0.00,,,0.00,weatherlink.com 1.10,2013-02-05 18:54:00,
2013-02-05 13:09:00,38.3,32.0,29.89,WNW,297,6.0,14.0,77,0.00,,,0.00,weatherlink.com 1.10,2013-02-05 19:09:00,
2013-02-05 13:24:00,38.4,31.0,29.88,NW,315,9.0,12.0,76,0.00,,,0.00,weatherlink.com 1.10,2013-02-05 19:24:00,
2013-02-05 13:39:00,39.0,32.0,29.89,West,264,11.0,16.0,75,0.00,,,0.00,weatherlink.com 1.10,2013-02-05 19:39:00,
2013-02-05 13:54:00,38.5,31.0,29.90,WNW,288,3.0,14.0,75,0.00,,,0.00,weatherlink.com 1.10,2013-02-05 19:54:00,
2013-02-05 14:09:00,38.3,32.0,29.91,West,259,6.0,14.0,77,0.00,,,0.00,weatherlink.com 1.10,2013-02-05 20:09:00,
2013-02-05 14:24:00,37.7,31.0,29.91,WNW,284,7.0,13.0,76,0.00,,,0.00,weatherlink.com 1.10,2013-02-05 20:24:00,
2013-02-05 14:39:00,37.2,31.0,29.91,West,278,1.0,10.0,79,0.00,,,0.00,weatherlink.com 1.10,2013-02-05 20:39:00,
2013-02-05 14:54:00,37.3,31.0,29.92,WNW,290,5.0,15.0,78,0.00,,,0.00,weatherlink.com 1.10,2013-02-05 20:54:00,
2013-02-05 15:09:00,37.4,31.0,29.93,WNW,288,5.0,12.0,78,0.00,,,0.00,weatherlink.com 1.10,2013-02-05 21:09:00,
2013-02-05 15:24:00,37.5,31.0,29.94,NW,305,8.0,15.0,78,0.00,,,0.00,weatherlink.com 1.10,2013-02-05 21:24:00,
2013-02-05 15:39:00,37.2,31.0,29.95,WNW,295,4.0,15.0,79,0.00,,,0.00,weatherlink.com 1.10,2013-02-05 21:39:00,
2013-02-05 15:54:00,37.2,32.0,29.95,West,260,6.0,11.0,80,0.00,,,0.00,weatherlink.com 1.10,2013-02-05 21:54:00,
2013-02-05 16:09:00,37.2,31.0,29.96,NW,308,5.0,14.0,79,0.00,,,0.00,weatherlink.com 1.10,2013-02-05 22:09:00,
2013-02-05 16:24:00,37.1,31.0,29.97,NNW,327,9.0,10.0,80,0.00,,,0.00,weatherlink.com 1.10,2013-02-05 22:24:00,
2013-02-05 16:39:00,36.5,31.0,29.98,WNW,300,6.0,15.0,81,0.00,,,0.00,weatherlink.com 1.10,2013-02-05 22:39:00,
2013-02-05 16:54:00,36.1,31.0,29.99,WNW,285,8.0,16.0,81,0.00,,,0.00,weatherlink.com 1.10,2013-02-05 22:54:00,
2013-02-05 17:09:00,35.9,31.0,29.99,NW,311,10.0,12.0,82,0.00,,,0.00,weatherlink.com 1.10,2013-02-05 23:09:00,
2013-02-05 17:24:00,35.8,31.0,30.00,NW,321,6.0,11.0,83,0.00,,,0.00,weatherlink.com 1.10,2013-02-05 23:24:00,
2013-02-05 17:39:00,35.7,31.0,30.01,NW,307,4.0,7.0,83,0.00,,,0.00,weatherlink.com 1.10,2013-02-05 23:39:00,
2013-02-05 17:54:00,35.5,31.0,30.02,NW,307,8.0,9.0,83,0.00,,,0.00,weatherlink.com 1.10,2013-02-05 23:54:00,
2013-02-05 18:09:00,35.4,31.0,30.02,NW,304,6.0,7.0,84,0.00,,,0.00,weatherlink.com 1.10,2013-02-06 00:09:00,
2013-02-05 18:24:00,35.3,31.0,30.03,NW,304,5.0,7.0,84,0.00,,,0.00,weatherlink.com 1.10,2013-02-06 00:24:00,
2013-02-05 18:39:00,35.1,31.0,30.04,NNW,328,2.0,5.0,84,0.00,,,0.00,weatherlink.com 1.10,2013-02-06 00:39:00,
2013-02-05 18:54:00,35.1,31.0,30.04,WNW,295,1.0,8.0,84,0.00,,,0.00,weatherlink.com 1.10,2013-02-06 00:54:00,
2013-02-05 19:09:00,35.2,31.0,30.05,NW,305,6.0,7.0,83,0.00,,,0.00,weatherlink.com 1.10,2013-02-06 01:09:00,
2013-02-05 19:24:00,35.3,30.0,30.05,WNW,288,2.0,12.0,80,0.00,,,0.00,weatherlink.com 1.10,2013-02-06 01:24:00,
2013-02-05 19:39:00,35.4,29.0,30.06,NW,308,6.0,9.0,78,0.00,,,0.00,weatherlink.com 1.10,2013-02-06 01:39:00,
2013-02-05 19:54:00,35.4,29.0,30.06,WSW,240,2.0,11.0,78,0.00,,,0.00,weatherlink.com 1.10,2013-02-06 01:54:00,
2013-02-05 20:09:00,35.3,29.0,30.07,NNW,328,7.0,9.0,78,0.00,,,0.00,weatherlink.com 1.10,2013-02-06 02:09:00,
2013-02-05 20:24:00,35.1,29.0,30.07,WNW,300,1.0,7.0,79,0.00,,,0.00,weatherlink.com 1.10,2013-02-06 02:24:00,
2013-02-05 20:39:00,34.8,29.0,30.07,WNW,291,3.0,6.0,80,0.00,,,0.00,weatherlink.com 1.10,2013-02-06 02:39:00,
2013-02-05 20:55:00,34.7,29.0,30.08,NW,311,2.0,6.0,80,0.00,,,0.00,weatherlink.com 1.10,2013-02-06 02:55:00,
2013-02-05 21:10:00,34.3,29.0,30.09,NW,311,2.0,6.0,81,0.00,,,0.00,weatherlink.com 1.10,2013-02-06 03:10:00,
2013-02-05 21:25:00,33.3,29.0,30.09,NW,318,2.0,4.0,83,0.00,,,0.00,weatherlink.com 1.10,2013-02-06 03:25:00,
2013-02-05 21:40:00,33.2,29.0,30.10,West,264,2.0,4.0,83,0.00,,,0.00,weatherlink.com 1.10,2013-02-06 03:40:00,
2013-02-05 21:55:00,33.0,29.0,30.11,WNW,303,1.0,2.0,84,0.00,,,0.00,weatherlink.com 1.10,2013-02-06 03:55:00,
2013-02-05 22:10:00,32.2,28.0,30.11,West,270,1.0,4.0,84,0.00,,,0.00,weatherlink.com 1.10,2013-02-06 04:10:00,
2013-02-05 22:25:00,31.1,27.0,30.11,WNW,285,0.0,2.0,85,0.00,,,0.00,weatherlink.com 1.10,2013-02-06 04:25:00,
2013-02-05 22:40:00,30.8,27.0,30.12,WNW,284,2.0,4.0,87,0.00,,,0.00,weatherlink.com 1.10,2013-02-06 04:40:00,
2013-02-05 22:55:00,30.5,27.0,30.12,NW,307,2.0,4.0,87,0.00,,,0.00,weatherlink.com 1.10,2013-02-06 04:55:00,
2013-02-05 23:10:00,30.2,27.0,30.12,WNW,287,1.0,4.0,87,0.00,,,0.00,weatherlink.com 1.10,2013-02-06 05:10:00,
2013-02-05 23:25:00,30.0,27.0,30.12,NW,319,0.0,4.0,88,0.00,,,0.00,weatherlink.com 1.10,2013-02-06 05:25:00,
2013-02-05 23:40:00,29.6,27.0,30.13,NW,309,3.0,3.0,89,0.00,,,0.00,weatherlink.com 1.10,2013-02-06 05:40:00,
2013-02-05 23:55:00,29.7,27.0,30.13,West,280,1.0,4.0,88,0.00,,,0.00,weatherlink.com 1.10,2013-02-06 05:55:00,